| time (UTC) | temp F | wind direction | speed knots | gust knots | rain 1hr in | rain 24hr in | rain mn in | humidity % | barometer mb |
| 20260504021521 | 50 | 180 | 2.6 | 3.5 | 0.00 | 0.00 | 0.00 | 51 | 1014.3 |
| 20260504020522 | 50 | 180 | 1.7 | 2.6 | 0.00 | 0.00 | 0.00 | 51 | 1014.1 |
| 20260504014522 | 51 | 180 | 1.7 | 1.7 | 0.00 | 0.00 | 0.00 | 48 | 1013.9 |
| 20260504013621 | 51 | 166 | 1.7 | 1.7 | 0.00 | 0.00 | 0.00 | 48 | 1014.0 |
| 20260504012622 | 52 | 180 | 1.7 | 2.6 | 0.00 | 0.00 | 0.00 | 47 | 1013.7 |
| 20260504011639 | 52 | 180 | 1.7 | 2.6 | 0.00 | 0.00 | 0.00 | 46 | 1013.8 |
| 20260504010722 | 53 | 180 | 0.9 | 1.7 | 0.00 | 0.00 | 0.00 | 44 | 1013.8 |
| 20260504005722 | 53 | 180 | 1.7 | 1.7 | 0.00 | 0.00 | 0.00 | 43 | 1013.7 |
| 20260504004821 | 54 | 262 | 0.0 | 1.7 | 0.00 | 0.00 | 0.00 | 42 | 1013.8 |
| 20260504003821 | 55 | 192 | 1.7 | 2.6 | 0.00 | 0.00 | 0.00 | 41 | 1013.8 |
| 20260504002825 | 55 | 193 | 1.7 | 3.5 | 0.00 | 0.00 | 0.00 | 39 | 1013.7 |
| 20260504001922 | 56 | 182 | 3.5 | 5.2 | 0.00 | 0.00 | 0.00 | 39 | 1013.9 |
| 20260504001021 | 56 | 220 | 2.6 | 5.2 | 0.00 | 0.00 | 0.00 | 39 | 1013.8 |
| 20260504000025 | 56 | 195 | 3.5 | 5.2 | 0.00 | 0.00 | 0.00 | 39 | 1013.8 |
| 20260503235121 | 57 | 186 | 1.7 | 3.5 | 0.00 | 0.00 | 0.00 | 39 | 1013.9 |
| 20260503234123 | 57 | 232 | 0.9 | 3.5 | 0.00 | 0.00 | 0.00 | 38 | 1014.0 |
| 20260503232221 | 57 | 212 | 3.5 | 7.8 | 0.00 | 0.00 | 0.00 | 37 | 1014.1 |
| 20260503231222 | 57 | 213 | 2.6 | 7.8 | 0.00 | 0.00 | 0.00 | 37 | 1014.1 |
| 20260503230224 | 57 | 156 | 3.5 | 6.1 | 0.00 | 0.00 | 0.00 | 37 | 1014.1 |
| 20260503225222 | 57 | 243 | 2.6 | 5.2 | 0.00 | 0.00 | 0.00 | 37 | 1014.1 |
| 20260503223222 | 57 | 198 | 3.5 | 5.2 | 0.00 | 0.00 | 0.00 | 36 | 1014.3 |
| 20260503222223 | 58 | 194 | 4.3 | 7.8 | 0.00 | 0.00 | 0.00 | 36 | 1014.2 |
| 20260503221221 | 58 | 235 | 2.6 | 7.0 | 0.00 | 0.00 | 0.00 | 36 | 1014.3 |
| 20260503220222 | 58 | 227 | 5.2 | 8.7 | 0.00 | 0.00 | 0.00 | 36 | 1014.4 |
| 20260503215123 | 58 | 211 | 2.6 | 6.1 | 0.00 | 0.00 | 0.00 | 35 | 1014.2 |
| 20260503214220 | 59 | 171 | 4.3 | 9.6 | 0.00 | 0.00 | 0.00 | 36 | 1014.3 |
| 20260503213222 | 58 | 194 | 0.9 | 4.3 | 0.00 | 0.00 | 0.00 | 36 | 1014.3 |
| 20260503212221 | 59 | 178 | 5.2 | 9.6 | 0.00 | 0.00 | 0.00 | 35 | 1014.2 |
| 20260503210322 | 58 | 190 | 6.1 | 11.3 | 0.00 | 0.00 | 0.00 | 36 | 1014.2 |
| 20260503205324 | 58 | 205 | 4.3 | 7.0 | 0.00 | 0.00 | 0.00 | 36 | 1014.2 |
| 20260503204422 | 58 | 208 | 4.3 | 6.1 | 0.00 | 0.00 | 0.00 | 36 | 1014.3 |
| 20260503203422 | 58 | 208 | 6.1 | 16.5 | 0.00 | 0.00 | 0.00 | 35 | 1014.3 |
| 20260503202521 | 58 | 242 | 4.3 | 7.0 | 0.00 | 0.00 | 0.00 | 35 | 1014.6 |
| 20260503201539 | 59 | 256 | 5.2 | 11.3 | 0.00 | 0.00 | 0.00 | 35 | 1014.6 |
| 20260503200621 | 58 | 175 | 2.6 | 5.2 | 0.00 | 0.00 | 0.00 | 34 | 1014.8 |
| 20260503195621 | 60 | 201 | 5.2 | 9.6 | 0.00 | 0.00 | 0.00 | 34 | 1014.9 |
| 20260503194623 | 60 | 216 | 2.6 | 6.1 | 0.00 | 0.00 | 0.00 | 33 | 1015.0 |
| 20260503193622 | 59 | 207 | 4.3 | 7.0 | 0.00 | 0.00 | 0.00 | 33 | 1015.1 |
| 20260503192623 | 59 | 216 | 4.3 | 8.7 | 0.00 | 0.00 | 0.00 | 34 | 1015.4 |
| 20260503185723 | 58 | 181 | 3.5 | 7.0 | 0.00 | 0.00 | 0.00 | 34 | 1015.6 |
| 20260503184721 | 58 | 192 | 4.3 | 9.6 | 0.00 | 0.00 | 0.00 | 34 | 1015.7 |
| 20260503184622 | 58 | 191 | 2.6 | 9.6 | 0.00 | 0.00 | 0.00 | 34 | 1015.8 |
| 20260503183623 | 59 | 204 | 0.9 | 6.1 | 0.00 | 0.00 | 0.00 | 34 | 1015.9 |
| 20260503182622 | 59 | 308 | 0.9 | 3.5 | 0.00 | 0.00 | 0.00 | 34 | 1015.9 |
| 20260503181622 | 58 | 209 | 0.9 | 3.5 | 0.00 | 0.00 | 0.00 | 35 | 1016.1 |
| 20260503180721 | 59 | 199 | 5.2 | 8.7 | 0.00 | 0.00 | 0.00 | 35 | 1016.2 |
| 20260503175721 | 59 | 251 | 4.3 | 7.0 | 0.00 | 0.00 | 0.00 | 35 | 1016.3 |
| 20260503174721 | 58 | 288 | 3.5 | 7.0 | 0.00 | 0.00 | 0.00 | 34 | 1016.4 |
| 20260503173723 | 58 | 264 | 5.2 | 9.6 | 0.00 | 0.00 | 0.00 | 35 | 1016.4 |
| 20260503172722 | 58 | 249 | 2.6 | 6.1 | 0.00 | 0.00 | 0.00 | 36 | 1016.5 |
| 20260503171722 | 57 | 250 | 3.5 | 7.0 | 0.00 | 0.00 | 0.00 | 37 | 1016.7 |
| 20260503171622 | 57 | 259 | 2.6 | 5.2 | 0.00 | 0.00 | 0.00 | 37 | 1016.7 |
| 20260503170623 | 56 | 180 | 4.3 | 7.0 | 0.00 | 0.00 | 0.00 | 39 | 1016.8 |
| 20260503150121 | 51 | 182 | 4.3 | 9.6 | 0.00 | 0.00 | 0.00 | 41 | 1017.9 |
| 20260503131222 | 45 | 227 | 1.7 | 4.3 | 0.00 | 0.00 | 0.00 | 49 | 1018.5 |
| 20260503130123 | 44 | 165 | 0.9 | 1.7 | 0.00 | 0.00 | 0.00 | 52 | 1018.3 |
| 20260503120124 | 39 | 205 | 4.3 | 8.7 | 0.00 | 0.00 | 0.00 | 66 | 1017.9 |
| 20260503100224 | 35 | 180 | 1.7 | 2.6 | 0.00 | 0.00 | 0.00 | 77 | 1016.6 |
| 20260503081522 | 35 | 180 | 1.7 | 2.6 | 0.00 | 0.05 | 0.00 | 77 | 1016.9 |
| 20260503080621 | 35 | 180 | 1.7 | 2.6 | 0.00 | 0.05 | 0.00 | 77 | 1016.9 |
| 20260503072723 | 36 | 176 | 2.6 | 3.5 | 0.00 | 0.05 | 0.00 | 77 | 1016.9 |
| 20260503071724 | 36 | 180 | 1.7 | 2.6 | 0.00 | 0.05 | 0.00 | 77 | 1017.0 |
| 20260503070738 | 36 | 180 | 1.7 | 2.6 | 0.00 | 0.06 | 0.00 | 77 | 1017.0 |
| 20260503054838 | 37 | 180 | 1.7 | 1.7 | 0.00 | 0.10 | 0.00 | 75 | 1017.3 |
| 20260503053923 | 37 | 180 | 1.7 | 1.7 | 0.00 | 0.10 | 0.00 | 74 | 1017.3 |
| 20260503053021 | 38 | 180 | 1.7 | 1.7 | 0.00 | 0.10 | 0.00 | 73 | 1017.4 |
| 20260503052036 | 38 | 180 | 1.7 | 2.6 | 0.00 | 0.10 | 0.00 | 72 | 1017.3 |
| 20260503051122 | 38 | 184 | 1.7 | 2.6 | 0.00 | 0.10 | 0.00 | 72 | 1017.3 |
| 20260503050123 | 38 | 171 | 1.7 | 2.6 | 0.00 | 0.10 | 0.00 | 73 | 1017.3 |
| 20260503045221 | 38 | 202 | 1.7 | 2.6 | 0.00 | 0.10 | 0.00 | 73 | 1017.6 |
| 20260503044221 | 38 | 180 | 1.7 | 1.7 | 0.00 | 0.10 | 0.00 | 73 | 1017.5 |
| 20260503043222 | 39 | 183 | 1.7 | 2.6 | 0.00 | 0.10 | 0.00 | 73 | 1017.5 |
| 20260503042239 | 39 | 171 | 1.7 | 1.7 | 0.00 | 0.10 | 0.00 | 72 | 1017.6 |
| 20260503040321 | 38 | 180 | 0.9 | 1.7 | 0.00 | 0.10 | 0.00 | 72 | 1017.6 |
| 20260503033335 | 38 | 180 | 0.9 | 1.7 | 0.00 | 0.10 | 0.10 | 76 | 1017.7 |
| 20260503033251 | 38 | 180 | 1.7 | 1.7 | 0.00 | 0.10 | 0.10 | 75 | 1017.7 |
| 20260503031252 | 37 | 180 | 1.7 | 2.6 | 0.00 | 0.10 | 0.10 | 74 | 1017.7 |
| 20260503030336 | 37 | 180 | 1.7 | 1.7 | 0.00 | 0.10 | 0.10 | 75 | 1017.9 |
| 20260503024434 | 38 | 180 | 1.7 | 1.7 | 0.00 | 0.10 | 0.10 | 73 | 1017.9 |